Location: Oshawa
(43.9000°N, 78.8670°W)
Time: 00:41:29
(UTC-04:00)

Thor Agena Rocket - Visible Passes

Search period start: 26 June 2016 00:00
Search period end: 06 July 2016 00:00
Orbit: 759 x 809 km, 99.1° (Epoch: 25 June)

Date Brightness Start Highest point End Pass type
(mag) Time Alt. Az. Time Alt. Az. Time Alt. Az.
26 Jun 6.4 03:20:58 10° E 03:23:39 14° ENE 03:26:20 10° NNE visible
26 Jun 3.6 04:57:04 10° SSE 05:02:17 85° WSW 05:07:26 10° NNW visible
27 Jun 4.5 04:26:09 10° SE 04:31:09 51° ENE 04:36:06 10° N visible
28 Jun 5.7 03:55:50 10° ESE 04:00:10 28° ENE 04:04:27 10° N visible
29 Jun 6.3 03:26:21 10° E 03:29:19 16° ENE 03:32:17 10° NNE visible
30 Jun 4.3 04:31:49 10° SSE 04:36:51 56° ENE 04:41:51 10° N visible
01 Jul 5.5 04:01:24 10° SE 04:05:51 30° ENE 04:10:16 10° N visible
02 Jul 6.3 03:31:44 10° E 03:34:59 17° ENE 03:38:12 10° NNE visible
03 Jul 4.1 04:37:30 10° SSE 04:42:34 62° ENE 04:47:36 10° N visible
04 Jul 5.3 04:06:59 10° SE 04:11:32 33° ENE 04:16:03 10° N visible
05 Jul 6.2 03:37:10 10° ESE 03:40:38 19° ENE 03:44:05 10° NNE visible
